This is the latest recevied weather packets stored in our database for station/object KB9HUO. If no packets are shown the sender has not sent any weather packets the latest 10 day(s).
| Time | Temp. | Humidity | Pressure | Rain* | Wind** | Luminosity | Snow |
|---|---|---|---|---|---|---|---|
| 1778183162 | 16.67° C | 37% | 1015.9 hPa | 0 mm | - | 74 W/m² | - |
| 1778182858 | 17.22° C | 35% | 1016 hPa | 0 mm | - | 57 W/m² | - |
| 1778182555 | 17.22° C | 38% | 1016.1 hPa | 0 mm | - | 59 W/m² | - |
| 1778182252 | 16.67° C | 35% | 1016 hPa | 0 mm | - | 59 W/m² | - |
| 1778181948 | 17.22° C | 36% | 1016.1 hPa | 0 mm | - | 119 W/m² | - |
| 1778181645 | 16.67° C | 36% | 1016.1 hPa | 0 mm | - | 49 W/m² | - |
| 1778181340 | 16.67° C | 34% | 1016.1 hPa | 0 mm | - | 362 W/m² | - |
| 1778181038 | 16.67° C | 32% | 1016.2 hPa | 0 mm | - | 486 W/m² | - |
| 1778180735 | 16.67° C | 36% | 1016.2 hPa | 0 mm | - | 271 W/m² | - |
| 1778180434 | 16.67° C | 34% | 1016.1 hPa | 0 mm | - | 272 W/m² | - |
| 1778180132 | 16.67° C | 35% | 1016.2 hPa | 0 mm | - | 222 W/m² | - |
| 1778179828 | 16.67° C | 35% | 1016.2 hPa | 0 mm | - | 168 W/m² | - |
| 1778179526 | 16.67° C | 37% | 1016.2 hPa | 0 mm | - | 510 W/m² | - |
| 1778179224 | 16.67° C | 36% | 1016.1 hPa | 0 mm | - | 452 W/m² | - |
| 1778178919 | 17.22° C | 35% | 1016.3 hPa | 0 mm | - | 70 W/m² | - |
| 1778178617 | 17.22° C | 39% | 1016 hPa | 0 mm | - | 360 W/m² | - |
| 1778178313 | 16.67° C | 39% | 1016 hPa | 0 mm | - | 237 W/m² | - |
| 1778178009 | 16.67° C | 36% | 1016.3 hPa | 0 mm | - | 662 W/m² | - |
| 1778177706 | 16.11° C | 37% | 1016.4 hPa | 0 mm | - | 808 W/m² | - |
| 1778177402 | 16.11° C | 35% | 1016.4 hPa | 0 mm | - | 809 W/m² | - |
| 1778177099 | 16.11° C | 34% | 1016.7 hPa | 0 mm | - | 814 W/m² | - |
| 1778176795 | 16.11° C | 36% | 1016.5 hPa | 0 mm | - | 820 W/m² | - |
| 1778176492 | 16.11° C | 36% | 1016.5 hPa | 0 mm | - | 822 W/m² | - |
| 1778176189 | 16.67° C | 37% | 1016.5 hPa | 0 mm | - | 827 W/m² | - |
| 1778175886 | 16.67° C | 39% | 1016.7 hPa | 0 mm | - | 830 W/m² | - |
* Rain latest hour (hover to see other rain measurements)
** Current wind speed in m/s (hover to see current wind gust speed)